User: anonymous   Login
Location: Unspecified
(0.0000°N, 0.0000°E)
Time: 06:10:15
(UTC+00:00)
Language:

USA 229 DEB - Orbit

View from above orbital plane
View from above orbital plane
View from above satellite
View from above satellite

Ground track
Ground track

The orbit data is extracted from the following two-line orbital elements,

1 37391U 11014B   17294.20700704 0.00000000  00000-0  00000-0 0    06
2 37391  63.4390  55.5437 0080000   2.2207 357.7793 13.40735585    02
Epoch (UTC): 21 October 2017 04:58:05
Eccentricity: 0.0080000
inclination: 63.4390°
perigee height: 1046 km
apogee height: 1166 km
right ascension of ascending node: 55.5437°
argument of perigee: 2.2207°
revolutions per day: 13.40735585
mean anomaly at epoch: 357.7793°
orbit number at epoch: 0

The dashed part of the orbit path shows where the satellite is in the earth's shadow,  

DLR